#timestamp,LO_Frequency,Hit,StdDev 
1456905615.8,286047011.9,N
1456905635.6,286047015.4,N
1456905655.5,286047013.2,N
1456905675.3,286047009.3,N
1456905695.1,286047009.4,N
1456905715.9,286047009.9,N
1456905735.7,286047008.3,N
1456905755.5,286047006.5,N
1456905775.4,286047005.9,N
1456905795.2,286047000.8,N
1456905815.0,286046994.6,N
1456905815.9,286046994.6,N
1456905835.7,286046990.1,N
1456905855.6,286046993.1,N
1456905875.4,286046996.2,N
1456905895.2,286046994.1,N
1456905915.1,286046989.4,N
1456905916.0,286046989.4,N
1456905935.8,286046993.0,N
1456905955.6,286046992.2,N
1456905975.5,286046990.9,N
1456905995.3,286046989.3,N
1456906015.1,286046987.1,N
1456906035.9,286046987.4,N
1456906055.7,286046986.2,N
1456906075.5,286046986.0,N
1456906095.4,286046985.6,N
1456906115.2,286046990.0,N
1456906135.0,286046989.3,N
1456906135.9,286046989.3,N
1456906155.8,286046990.9,N
1456906175.6,286046997.5,N
1456906195.4,286047002.1,N
1456906215.3,286047004.6,N
1456906235.1,286047009.4,N
1456906236.0,286047009.4,N
1456906255.8,286047013.7,N
1456906275.6,286047013.3,N
1456906295.5,286047012.2,N
1456906315.3,286047009.0,N
1456906335.1,286047003.2,N
1456906355.9,286047000.0,N
1456906375.7,286046998.6,N
1456906395.5,286046999.1,N
1456906415.4,286047001.1,N
1456906435.2,286046999.8,N
1456906455.0,286046999.0,N
1456906455.9,286046999.0,N
1456906475.8,286047000.1,N
1456906495.6,286047000.1,N
1456906515.4,286047003.2,N
1456906535.3,286047003.0,N
1456906555.1,286047003.2,N
1456906556.0,286047003.2,N
1456906575.8,286047002.9,N
1456906595.7,286047006.0,N
1456906615.5,286047005.6,N
1456906635.3,286047004.4,N
1456906655.1,286047002.4,N
1456906675.9,286047001.6,N
1456906695.7,286047001.9,N
1456906715.5,286047001.8,N
1456906735.4,286047002.3,N
1456906755.2,286047001.1,N
1456906775.0,286046999.3,N
1456906775.9,286046999.3,N
1456906795.8,286046996.6,N
1456906815.6,286046997.7,N
1456906835.4,286046996.8,N
1456906855.3,286046997.8,N
1456906875.1,286046996.7,N
1456906876.0,286046996.7,N
1456906895.8,286047001.4,N
1456906915.7,286047001.2,N
1456906935.5,286046998.1,N
1456906955.3,286047003.6,N
1456906975.2,286047006.5,N
1456906995.9,286047006.7,N
1456907015.7,286047003.0,N
1456907035.5,286047003.4,N
1456907055.4,286047010.8,Y
1456907075.2,286047008.6,P
1456907095.0,286047010.4,N
1456907096.0,286047010.4,N
1456907115.8,286047011.8,Y
1456907135.6,286047007.6,P
1456907155.5,286047009.0,P
1456907175.3,286047007.6,P
1456907195.1,286047000.3,N
1456907215.8,286047003.4,N
1456907235.7,286047003.1,N
1456907255.5,286047006.0,N
1456907275.3,286047005.3,N
1456907295.2,286047008.7,Y
1456907315.0,286047004.5,P
1456907315.9,286047004.5,P
1456907335.7,286047008.4,P
1456907355.6,286047010.3,Y
1456907375.4,286047005.8,P
1456907395.2,286047006.0,P
1456907415.1,286047004.4,P
1456907416.0,286047004.4,Y
1456907435.8,286046994.1,P
1456907455.7,286046990.7,N
1456907475.5,286046987.7,N
1456907495.3,286046985.8,N
1456907515.1,286046985.4,N
1456907535.9,286046987.9,N
1456907555.7,286046984.9,N
1456907575.5,286046984.9,N
1456907595.4,286046986.3,N
1456907615.2,286046984.7,N
1456907635.0,286046982.6,N
1456907635.9,286046982.6,N
1456907655.8,286046982.1,Y
1456907675.6,286046997.5,P
1456907695.4,286046996.4,N
1456907715.3,286046990.7,N
1456907735.1,286046988.6,N
1456907755.8,286046989.4,N
1456907775.7,286046990.9,N
1456907795.5,286046990.4,N
1456907815.3,286046993.6,N
1456907835.2,286046992.9,N
1456907855.9,286046992.9,N
1456907875.7,286046992.5,N
1456907895.6,286046992.2,N
1456907915.4,286046990.2,Y
1456907935.2,286046996.8,P
1456907955.1,286046997.7,N
1456907956.0,286046997.7,N
1456907975.8,286046997.8,N
1456907995.6,286046997.4,N
1456908015.5,286046995.5,N
1456908035.3,286046995.7,N
1456908055.1,286046993.5,Y
1456908075.9,286046998.1,P
1456908095.7,286047002.0,N
1456908115.5,286047000.1,N
1456908135.3,286046996.9,N
1456908155.2,286046995.5,N
1456908175.0,286046995.8,N
1456908175.9,286046995.8,N
1456908195.8,286046993.4,Y
1456908215.6,286046993.4,P
1456908235.4,286046993.7,P
1456908255.2,286046994.8,N
1456908275.1,286046994.4,Y
1456908276.0,286046994.4,P
1456908295.8,286046998.2,P
1456908315.7,286047003.9,N
1456908335.5,286047002.3,N
1456908355.3,286047001.9,N
1456908375.1,286046999.0,N
1456908395.9,286046998.8,N
1456908415.7,286047000.0,N
1456908435.5,286047002.8,N
1456908455.4,286047006.0,N
1456908475.2,286047003.2,N
1456908495.0,286047007.4,N
1456908495.9,286047007.4,N
1456908515.8,286047006.9,N
1456908535.6,286047008.7,N
1456908555.4,286047005.7,N
1456908575.3,286047005.8,N
1456908595.1,286047001.5,N
1456908596.0,286047001.5,N
1456908615.8,286047001.0,N
1456908635.7,286047000.4,N
1456908655.5,286047000.2,N
1456908675.3,286047001.8,N
1456908695.1,286047005.1,N
1456908715.9,286047007.2,N
1456908735.7,286047004.0,N
1456908755.5,286047004.2,N
1456908775.4,286047003.1,N
1456908795.2,286047005.2,N
1456908815.0,286047007.2,N
1456908815.9,286047007.2,N
1456908835.8,286047008.1,N
1456908855.6,286047008.5,N
1456908875.4,286047006.1,N
1456908895.3,286047006.5,N
1456908915.1,286047008.3,N
1456908916.0,286047008.3,N
1456908935.8,286047004.9,N
1456908955.7,286046999.1,N
1456908975.5,286046992.4,N
1456908995.3,286046992.9,N
1456909015.1,286046989.3,N
1456909035.9,286046987.8,N
1456909055.7,286046987.3,N
1456909075.5,286046989.6,N
1456909095.4,286046982.1,N
1456909115.2,286046985.0,N
1456909135.0,286046986.8,N
1456909135.9,286046986.8,N
1456909155.8,286046986.4,N
1456909175.6,286046986.6,N
1456909195.4,286046984.6,N
